Starlink 33941

operational
NORAD ID: 63765 Int'l Des: 2025-089 Owner: SPXS Country: US Constellation: starlink
LEOCIRCULAR

About Starlink 33941

Description loading...

Live Position

Loading 3D Globe...

Upcoming Passes

Altitude History

Altitude vs Time

uPlot chart will show altitude changes over time

Two-Line Element Set

1 63765U 25089Q 26036.89793806 .00031172 00000-0 11358-2 0 9992
2 63765 43.0026 224.9306 0002183 274.4671 85.5932 15.27629177 44080
Epoch: Feb 5, 2026 • Age: 12 hours

Current Status

Altitude 489.5 km
Velocity 7.62 km/s
Sub-Earth Point -28.81°S, 158.78°E
Launch Date Apr 29, 2025
Age 0.7 years
Type internet

Technical Details

Classification Payload
Mass 575.00 kg
Dry Mass 530.00 kg
Total Mass 575.00 kg
Length 0.30 m
Diameter 4.10 m
Span 29.00 m
Shape Box + pan
Manufacturer SPXS
Bus Type Starlink V2MO
Phase Status In Orbit
Owner/State SPXS/US

Large Constellations

Loading constellations...